Location: Newark
(42.8481°N, 0.4872°E)
Time: 16:55:35
(UTC+00:00)

Vanguard 3 - Pass Details

Date: 01 November 2020
Orbit: 508 x 3262 km, 33.3° (Epoch: 28 November)

Event Time Altitude Azimuth Distance (km) Brightness Sun altitude
Rises 10:50:26 0° 281° (W) 7,225 11.8 31.3°
Reaches altitude 10° 10:56:20 10° 272° (W) 6,182 11.6 31.6°
Maximum altitude 11:11:05 29° 222° (SW) 4,248 11.6 32.1°
Drops below altitude 10° 11:22:32 10° 170° (S) 4,722 12.6 32.3°
Sets 11:26:20 0° 159° (SSE) 5,336 12.3 32.4°
